Regional Weather Roundup
Issued by NWS Newport/Morehead, NC

Current Version | Previous Version | Graphics & Text | Print | Product List | Glossary Off
Versions: 1 2 3 4 5 6 7 8 9 10 11 12 13 14 15 16 17 18 19 20 21 22 23 24 25 26 27 28 29 30 31 32 33 34 35 36 37 38 39 40 41 42 43 44 45 46 47 48 49 50

000
ASUS42 KMHX 281122
RWRMHX
WEATHER ROUNDUP FOR EASTERN NORTH CAROLINA
NATIONAL WEATHER SERVICE NEWPORT/MOREHEAD CITY NC
600 AM EST FRI NOV 28 2014

NOTE: "FAIR" INDICATES FEW OR NO CLOUDS BELOW 12,000 FEET
WITH NO SIGNIFICANT WEATHER AND/OR OBSTRUCTIONS TO VISIBILITY

NCZ015>017-031-032-045>047-102-103-281200-
NORTH COAST

CITY           SKY/WX    TMP DP  RH WIND       PRES   REMARKS
EDENTON          N/A     33  28  80 NW8       30.27R
ELIZABETH CITY CLEAR     37  27  67 NW12      30.26R
KITTY HAWK     SUNNY     37  30  75 NW10G17   30.21S
MANTEO         CLEAR     38  30  72 NW12G20   30.23S

$$

NCZ045>047-081-094-103-104-281200-
CENTRAL COAST

CITY           SKY/WX    TMP DP  RH WIND       PRES   REMARKS
FRISCO         CLEAR     40  29  64 N12G23    30.22R
SWANQUARTER      N/A     34 N/A N/A NW10G17   30.24R

$$

NCZ095-097-098-100-101-281200-
SOUTHERN COAST

CITY           SKY/WX    TMP DP  RH WIND       PRES   REMARKS
BEAUFORT       CLEAR     36  26  67 N14       30.27R
CEDAR ISLAND     N/A     39 N/A N/A NW22G30   30.30R
JACKSONVILLE   CLEAR     32  26  78 NW8       30.30R
PINEY ISLAND   MOSUNNY   40  27  59 NW16G24   30.26R
WILMINGTON     CLEAR     33  26  75 N9        30.30R


$$

NCZ011>013-027>030-043-044-078>080-089-090>093-098-281200-
COASTAL PLAIN

CITY           SKY/WX    TMP DP  RH WIND       PRES   REMARKS
AHOSKIE        CLEAR     30  24  79 CALM      30.29R
CLINTON        CLEAR     32  27  81 CALM      30.32R
ELIZABETHTOWN  CLEAR     32  26  77 NW5       30.32R
GOLDSBORO      CLEAR     31  28  87 CALM      30.29R
GREENVILLE     CLEAR     32  27  80 CALM      30.30R
HAVELOCK       PTCLDY    36  24  62 NW13      30.29R
KENANSVILLE    CLEAR     32  25  76 NW3       30.32R
KINSTON        NOT AVBL
NEW BERN       CLEAR     35  24  64 NW7       30.30R
RICHLANDS      CLEAR     30  25  80 NW3       30.31R
ROCKY MOUNT    CLEAR     31  22  69 W5        30.30R
WASHINGTON     CLEAR     31  26  80 NW3       30.29R
WHITEVILLE     CLEAR     32  27  83 CALM      30.32R

$$

AMZ130-135-150-152-154-156-158-170-250-252-270-ANZ085-086-088-633-658-670-281200-
MARINE OBSERVATIONS

STATION/POSITION TIME  TEMP    WIND        PRES    WAVE   SWELL
                       AIR SEA DIR/SP/G            HT/PER HT/PER
                 (UTC) (F)     (DEG/KT/KT) (MB)    (FT/S) (FT/S)
CHESAPEAKE LIGHT 1100   39     350/ 27/ 31 1023.7
64 E VA BEACH    1100   46 63  320/ 23/ 27 1021.0    6/ 7   2/ 9
DUCK             1100   39 53  330/ 17/ 20 1022.8
2 E DUCK         1100      54                N/A     5/ 6   2/13
10 NE DUCK       1100      56                N/A     6/ 7   2/14
OREGON INLET     1100   39 54  320/ 13/ 20 1023.2
13E OREGON INLT  1100      60                N/A     6/ 6   2/14
HATTERAS CG      1100   42 54  340/ 21/ 25 1023.8
DIAMOND BUOY     1100   45     310/ 19/ 25 1022.4    6/ 4   3/ 8
17 S OCRACOKE    NOT AVBL
CAPE LOOKOUT     1100   38     340/ 23/ 25 1024.4
BEAUFORT LAB     1100   38 54  340/ 15/ 20 1024.1
30 SE NEW RIVER  1100   44 65  350/ 27/ 33 1024.3    6/ 5   2/ 9
5 SE WRIGHTSVLE  1100   37 58  340/ 21/ 27 1025.6
225 S CAPE HAT   1044   58 73  330/ 27/ 31 1019.6   10/ 9   2/13
41 SE CHARLESTON 1100   48 72  360/ 19/ 25 1025.1    6/ 6   2/ 9

$$



USA.gov is the U.S. government's official web portal to all federal, state and local government web resources and services.